EST,Max TemperatureF,Mean TemperatureF,Min TemperatureF,Max Dew PointF,MeanDew PointF,Min DewpointF,Max Humidity, Mean Humidity, Min Humidity, Max Sea Level PressureIn, Mean Sea Level PressureIn, Min Sea Level PressureIn, Max VisibilityMiles, Mean VisibilityMiles, Min VisibilityMiles, Max Wind SpeedMPH, Mean Wind SpeedMPH, Max Gust SpeedMPH,PrecipitationIn, CloudCover, Events, WindDirDegrees
2014-2-1,46,35,23,42,27,20,96,67,37,30.34,30.23,30.03,10,10,7,15,4,20,0.01,1,Rain,133
2014-2-2,60,48,35,42,38,33,100,69,37,30.06,29.98,29.94,10,8,1,13,5,16,0.05,4,Rain,229
2014-2-3,46,39,32,37,34,30,100,83,65,30.31,30.11,29.99,10,6,1,21,12,28,1.07,8,Rain-Snow,25
2014-2-4,37,32,27,32,26,21,92,78,64,30.46,30.37,30.19,10,10,2,13,7,15,0.02,8,Rain,22
2014-2-5,40,37,34,39,36,26,100,91,82,30.19,29.86,29.65,10,5,1,26,13,32,1.21,8,Rain,19
2014-2-6,34,29,24,24,16,13,75,61,47,30.31,30.23,30.01,10,10,10,25,10,31,0.00,2,,311
2014-2-7,41,30,18,21,18,15,88,61,34,30.37,30.31,30.25,10,10,7,14,5,19,0.00,0,,273
2014-2-8,32,26,20,19,13,4,88,60,31,30.36,30.28,30.19,10,10,9,10,5,13,T,3,,316
2014-2-9,33,26,18,26,19,10,100,72,43,30.20,30.09,30.01,10,6,1,12,5,15,0.10,7,Snow,302
2014-2-10,29,22,15,24,14,7,100,75,50,30.31,30.17,30.05,10,8,3,18,9,23,0.00,1,,301
2014-2-11,28,20,11,8,6,4,80,59,38,30.48,30.38,30.31,10,9,7,18,8,25,0.00,0,,331
2014-2-12,32,21,9,31,17,2,92,76,59,30.54,30.40,30.19,10,8,1,16,9,19,0.08,5,Snow,43
2014-2-13,39,36,32,38,35,31,100,96,92,30.17,29.51,29.09,10,3,1,33,20,44,1.89,8,Rain-Snow,29
2014-2-14,46,36,25,32,27,21,96,71,45,29.79,29.39,29.12,10,7,1,31,14,45,0.06,4,Snow,279
2014-2-15,45,35,25,41,31,19,100,82,64,29.81,29.63,29.48,10,6,0,26,14,36,0.11,6,Fog-Rain-Snow,8
2014-2-16,33,27,21,16,13,11,69,56,43,30.15,29.99,29.85,10,10,10,25,12,30,0.00,2,,291
2014-2-17,36,27,18,19,10,3,77,52,26,30.42,30.34,30.18,10,10,10,21,8,26,0.00,0,,296
2014-2-18,50,39,27,38,30,21,100,73,46,30.28,30.12,29.99,10,6,1,28,7,35,0.48,5,Rain-Snow,232
2014-2-19,50,38,26,49,39,26,93,77,60,30.12,29.89,29.72,10,7,2,24,9,30,0.08,4,Rain,210
2014-2-20,52,39,26,43,30,15,92,58,24,30.30,30.16,29.99,10,10,10,16,6,23,0.00,4,,220
2014-2-21,56,44,32,55,47,31,100,90,80,29.99,29.85,29.73,10,4,0,26,10,32,0.11,7,Fog-Rain,192
2014-2-22,59,44,28,33,28,17,100,61,21,30.12,30.04,29.95,10,8,0,17,9,23,0.00,0,Fog,230
2014-2-23,64,50,36,33,29,25,76,51,25,30.04,29.95,29.86,10,10,10,22,8,29,0.00,0,,248
2014-2-24,42,34,26,34,19,7,92,59,25,30.12,29.97,29.88,10,10,10,29,15,37,T,2,Rain,290
2014-2-25,32,25,18,27,20,10,85,66,46,30.13,30.05,29.98,10,6,1,18,6,24,0.02,6,Snow,266
2014-2-26,35,24,13,26,17,1,91,61,31,30.01,29.93,29.84,10,6,1,23,8,30,0.01,5,Snow,260
2014-2-27,39,24,8,18,7,-7,80,55,29,30.10,29.80,29.64,10,10,10,32,13,39,T,2,,280
2014-2-28,28,18,7,6,-6,-15,70,45,19,30.44,30.36,30.14,10,10,10,25,8,30,0.00,0,,337